Regional Weather Roundup
Issued by NWS Mobile, AL

Home | Current Version | Previous Version | Text Only | Print | Product List | Glossary On
Versions: 1 2 3 4 5 6 7 8 9 10 11 12 13 14 15 16 17 18 19 20 21 22 23 24 25 26 27 28 29 30 31 32 33 34 35 36 37 38 39 40 41 42 43 44 45 46 47 48 49 50
000
ASUS44 KMOB 061612
RWRMOB
REGIONAL WEATHER ROUNDUP
NATIONAL WEATHER SERVICE MOBILE AL
1100 AM CDT FRI MAY 06 2016

NOTE: "FAIR" INDICATES FEW OR NO CLOUDS BELOW 12,000 FEET WITH NO
      SIGNIFICANT WEATHER AND/OR OBSTRUCTIONS TO VISIBILITY.

  * THESE STATIONS ARE PART OF THE UNIVERSITY OF SOUTH ALABAMA
    MESONET AND ARE NOT UNDER NWS OR FAA QUALITY CONTROL.

ALZ061>064-061700-
COASTAL ALABAMA

CITY           SKY/WX    TMP DP  RH WIND       PRES   REMARKS
MOBILE REG APT SUNNY     66  47  50 VRB7G17   30.06S
BROOKLEY FIELD SUNNY     66  47  50 N13       30.06S
USA CAMPUS*    NOT AVBL
DOG RIVER*     NOT AVBL


CITY           SKY/WX    TMP DP  RH WIND       PRES   REMARKS
MOUNT VERNON*  NOT AVBL
SARALAND*      NOT AVBL
BAY MINETTE*   NOT AVBL
LOXLEY*        NOT AVBL
ROBERTSDALE*   NOT AVBL
FAIRHOPE*      NOT AVBL
ELBERTA*       NOT AVBL
FOLEY*         NOT AVBL
GRAND BAY*     NOT AVBL
DAUPHIN ISLND* NOT AVBL
BON SCOUR NWR* NOT AVBL
GULF SHORES    SUNNY     66  46  48 NW7G16    30.03S

$$

ALZ051>060-061700-
INTERIOR SOUTHWEST AND SOUTH CENTRAL ALABAMA

CITY           SKY/WX    TMP DP  RH WIND       PRES   REMARKS
GREENVILLE     NOT AVBL
EVERGREEN      SUNNY     69  45  41 NE15      30.03S
CASTLEBERRY*   NOT AVBL
ATMORE*        NOT AVBL
DIXIE*         NOT AVBL
ANDALUSIA/OPP  SUNNY     72  44  36 NE10G20   30.01S
ANDALUSIA*     NOT AVBL
FLORALA APT    SUNNY     67  44  43 N10G20    30.01F
FLORALA*       NOT AVBL

$$

FLZ001>006-061700-
WESTERN FLORIDA PANHANDLE

CITY           SKY/WX    TMP DP  RH WIND       PRES   REMARKS
PENSACOLA      SUNNY     68  43  40 N12       30.02S
NAS PENSACOLA  SUNNY     69  42  37 N9G20     30.02S
MILTON         MOSUNNY   67  45  45 N13       30.02S
WHTNG S FIELD  SUNNY     70  46  42 NE13      30.02S


CITY           SKY/WX    TMP DP  RH WIND       PRES   REMARKS
WALNUT HILL*   NOT AVBL
JAY*           NOT AVBL
DUKE FIELD     SUNNY     68  42  39 NE12G17   29.99S
CRESTVIEW      SUNNY     69  44  40 N9G18     30.01F
VALPARAISO     SUNNY     69  42  37 NE17      29.99F
DESTIN         SUNNY     70  46  42 N10       29.99F

$$

MSZ076-079-061700-
INTERIOR SOUTHEAST MISSISSIPPI

CITY           SKY/WX    TMP DP  RH WIND       PRES   REMARKS
LEAKESVILLE*   NOT AVBL
AGRICOLA*      NOT AVBL

$$

MARINE OBSERVATIONS

STATION/POSITION TIME  TEMP    WIND        PRES    WAVE
                       AIR SEA DIR/SP/G            HT/PER
                 (UTC) (F)     (DEG/KT/KT) (MB)    (FT/S)
PASCAGOULA       1500   63     360/  8/ 11 1017.4R
PETIT BOIS ISLND 1500   62      10/  7/ 10 1018.2R
KATRINA CUT      1500   61      40/ 12       N/A
CEDAR POINT      1500   60      40/ 14     1016.6S
E DAUPHIN ISLAND 1600   61     360/ 14/ 16 1017.6R
MIDDLE BAY LIGHT 1500   62      10/ 13     1016.9F
USCG MOBILE BAY  1500   61 71   40/ 12/ 14 1018.2R
STATE DOCKS      1500   66                 1017.5R
MEAHER PARK      1500   62      10/  6     1016.9F
WEEKS BAY        1345   62                   N/A
FORT MORGAN      1500   61      30/ 12/ 15 1016.7R
12 S ORANGE BCH  1550   62 74   10/ 10/ 12 1016.5R   1/ 3
PENSACOLA BAY    1500           10/  8/ 12 1016.8F
64 S DAUPHIN ISL 1500   67 74   10/ 12/ 17 1016.9R

$$

SELECTED LOCATIONS ACROSS THE REGION

CITY           SKY/WX    TMP DP  RH WIND       PRES   REMARKS
NEW ORLEANS    MOSUNNY   72  48  42 N7        30.08S
GULFPORT       SUNNY     67  45  45 N14       30.06S
PASCAGOULA AP  SUNNY     68  45  43 N8        30.06R
PASCAGOULA*    NOT AVBL
HATTIESBURG    SUNNY     66  44  45 NE5       30.09S
LAUREL         SUNNY     66  45  45 N7        30.10S
MERIDIAN       LGT RAIN  67  45  45 N9        30.07F
JACKSON        SUNNY     66  44  45 VRB5      30.10S
MONTGOMERY     SUNNY     70  44  39 N12G22    30.02S
TROY           SUNNY     69  47  45 N18       30.01S
KINSTON*       NOT AVBL
GENEVA*        NOT AVBL
ASHFORD*       NOT AVBL
DOTHAN         SUNNY     67  42  40 N15       30.01F
PANAMA CITY    SUNNY     68  44  42 NW10G21   29.96F

$$




USA.gov is the U.S. government's official web portal to all federal, state and local government web resources and services.